Flag for Australia Weather past 2 weeks in Hobart, Tasmania, Australia

Now
55 °F

Clear.


Feels Like: 55 °F
Forecast: 51 / 75 °F
Wind: No wind

Location: Hobart Airport

Current Time: Mar 31, 2015 at 11:07:50 PM

Latest Report: Mar 31, 2015 at 10:30 PM


Visibility: 10 mi

Pressure: 30.15 "Hg

Humidity: 88%

Dew point: 52 °F

Location of HobartLocation

Historic Weather in Hobart — Graph

°F

Hobart temperature yesterday

Maximum temperature yesterday: 73 °F (at 3:30 PM)
Minimum temperature yesterday: 50 °F (at 1:30 AM)
Average temperature yesterday: 60 °F

Past Weeks' High & Low Weather Summary

 TemperatureHumidityPressure
High77 °F (Mar 22, 3:30 PM)100% (Mar 30, 12:00 AM)30.39 "Hg (Mar 30, 12:00 AM)
Low43 °F (Mar 25, 7:00 AM)30% (Mar 20, 12:30 PM)29.42 "Hg (Mar 19, 2:30 PM)
Average58 °F68%29.94 "Hg
* Reported Mar 16 10:00 PM — Mar 31 10:00 PM, Hobart, Weather by CustomWeather, © 2015

Note: Actual official high and low records may vary slightly from our data, if they occured in-between our weather recording intervals... More about our weather records

Advertising

Hobart weather history for previous 24 hours

 ConditionsComfort  
Time TempWeatherWind HumidityBarometerVisibility
10:00 PM
Tue, Mar 31
55 °FClear.No wind88%30.15 "Hg10 mi
9:00 PM59 °FClear.7 mph77%30.15 "Hg10 mi
8:30 PM59 °FClear.6 mph77%30.15 "Hg10 mi
8:00 PM59 °FClear.8 mph77%30.12 "Hg10 mi
7:00 PM63 °FSunny.6 mph68%30.12 "Hg10 mi
6:30 PM63 °FSunny.9 mph68%30.12 "Hg10 mi
6:00 PM63 °FSunny.10 mph68%30.09 "Hg10 mi
5:30 PM66 °FSunny.9 mph52%30.12 "Hg10 mi
5:00 PM66 °FSunny.10 mph52%30.12 "Hg10 mi
4:30 PM66 °FSunny.10 mph49%30.12 "Hg10 mi
4:00 PM66 °FSunny.14 mph56%30.12 "Hg10 mi
3:30 PM66 °FSunny.13 mph56%30.12 "Hg10 mi
3:00 PM66 °FSunny.14 mph56%30.12 "Hg10 mi
2:30 PM68 °FSunny.13 mph49%30.12 "Hg10 mi
2:00 PM73 °FSunny.9 mph36%30.15 "Hg10 mi
1:30 PM72 °FSunny.8 mph38%30.15 "Hg10 mi
1:00 PM70 °FSunny.8 mph43%30.18 "Hg10 mi
12:30 PM68 °FSunny.9 mph43%30.18 "Hg10 mi
12:00 PM66 °FPassing clouds.8 mph49%30.18 "HgN/A
11:30 AM64 °FSunny.9 mph52%30.21 "Hg10 mi
11:00 AM61 °FSunny.10 mph59%30.21 "Hg10 mi
10:30 AM61 °FSunny.13 mph59%30.21 "Hg10 mi
10:00 AM59 °FSunny.8 mph63%30.24 "Hg10 mi
9:30 AM57 °FSunny.9 mph67%30.24 "Hg10 mi
9:00 AM54 °FSunny.8 mph77%30.24 "Hg10 mi
8:30 AM54 °FSunny.6 mph77%30.24 "Hg10 mi
8:00 AM52 °FSunny.10 mph82%30.24 "Hg10 mi
7:30 AM52 °FSunny.6 mph77%30.21 "Hg10 mi
7:00 AM52 °FCool.5 mph77%30.21 "HgN/A
6:00 AM52 °FClear.7 mph77%30.21 "Hg10 mi
5:30 AM54 °FClear.8 mph72%30.18 "Hg10 mi
5:00 AM54 °FClear.7 mph72%30.18 "Hg10 mi
4:00 AM55 °FClear.7 mph67%30.18 "Hg10 mi
3:30 AM55 °FClear.8 mph72%30.18 "Hg10 mi
3:00 AM55 °FClear.8 mph72%30.18 "Hg10 mi
2:30 AM55 °FClear.8 mph67%30.21 "Hg10 mi
2:00 AM57 °FClear.10 mph63%30.21 "Hg10 mi
1:30 AM55 °FClear.10 mph72%30.21 "Hg10 mi
1:00 AM55 °FPassing clouds.9 mph72%30.21 "HgN/A
12:30 AM57 °FClear.10 mph67%30.21 "Hg10 mi
12:00 AM59 °FClear.9 mph63%30.21 "Hg10 mi
11:00 PM
Mon, Mar 30
59 °FPassing clouds.10 mph59%30.21 "HgN/A
Weather by CustomWeather, © 2015

See weather overviewHow to use our weather pages